Weather History for Cairo, Egypt

Change the Weather History Date:

Friday, October 21, 2011

  Actual Average Record
Temperature  
Mean Temperature 70 °F -  
Max Temperature 80 °F 77 °F 93 °F (2007)
Min Temperature 61 °F 59 °F 60 °F (1997)
Cooling Degree Days 6    
Growing Degree Days 20 (Base 50)    
Moisture  
Dew Point 55 °F    
Average Humidity 58    
Maximum Humidity 72    
Minimum Humidity 40    
Precipitation  
Precipitation 0.00 in 0.00 in - ()
Sea Level Pressure  
Sea Level Pressure 30.00 in    
Wind  
Wind Speed 10 mph ()    
Max Wind Speed 21 mph    
Max Gust Speed -    
Visibility 5.7 miles    
Events      
Averages and records for this station are not official NWS values.
T = Trace of Precipitation, MM = Missing Value Source: Averaged Metar Reports

Daily Weather History Graph

Daily Weather History Graph

Search for Another Location

Airport:

Trip Planner

Search our weather history database for the weather conditions in past years. The results will help you decide how hot, cold, wet, or windy it might be!

Date:

Astronomy

Oct. 21, 2011 Rise Set
Actual Time 5:59 AM EET 5:17 PM EET
Civil Twilight 5:35 AM EET 5:41 PM EET
Nautical Twilight 5:07 AM EET 6:09 PM EET
Astronomical Twilight 4:39 AM EET 6:37 PM EET
Moon No Moon Rise 1:26 PM EET (10/21)
Length of Visible Light 12h 06m
Length of Day
11h 17m
Last Quarter, 36% of the Moon is Illuminated
Oct 21
Last Quarter
Oct 26
New
Nov 2
First Quarter
Nov 10
Full
Nov 18
Last Quarter

Hourly Weather History & Observations

Time (EET) Temp. Heat Index Dew Point Humidity Pressure Visibility Wind Dir Wind Speed Gust Speed Precip Events Conditions
12:00 AM 66.2 °F - 53.6 °F 64% 30.04 in - North 12.7 mph - N/A   Clear
12:30 AM 66.2 °F - 53.6 °F 64% 30.04 in - North 12.7 mph - N/A   Clear
1:00 AM 66.2 °F - 53.6 °F 64% 30.04 in - North 9.2 mph - N/A   Clear
1:30 AM 66.2 °F - 53.6 °F 64% 30.04 in - North 9.2 mph - N/A   Clear
2:00 AM 65 °F - 53 °F 57% 30.03 in 6 mi North 9.2 mph - -  
2:00 AM 64.4 °F - 53.6 °F 68% 30.01 in - North 10.4 mph - N/A   Clear
2:30 AM 64.4 °F - 53.6 °F 68% 30.01 in - North 10.4 mph - N/A   Clear
3:00 AM 64.4 °F - 53.6 °F 68% 30.01 in - North 8.1 mph - N/A   Clear
3:30 AM 64.4 °F - 53.6 °F 68% 30.01 in - North 8.1 mph - N/A   Clear
4:00 AM 62.6 °F - 53.6 °F 72% 30.01 in - North 5.8 mph - N/A   Clear
4:30 AM 62.6 °F - 53.6 °F 72% 30.01 in - North 5.8 mph - N/A   Clear
5:00 AM 62.6 °F - 53.6 °F 72% 30.01 in - North 4.6 mph - N/A   Clear
5:30 AM 62.6 °F - 53.6 °F 72% 30.01 in - North 4.6 mph - N/A   Clear
6:00 AM 60.8 °F - 51.8 °F 72% 30.01 in 3.7 mi East 3.5 mph - N/A   Unknown
7:00 AM 62.6 °F - 53.6 °F 72% 30.01 in 2.5 mi NE 2.3 mph - N/A   Mist
7:30 AM 64.4 °F - 53.6 °F 68% 30.01 in 3.7 mi ENE 3.5 mph - N/A   Unknown
8:00 AM 66 °F - 54 °F 55% 30.05 in 6 mi NE 3.5 mph - -  
8:00 AM 66.2 °F - 53.6 °F 64% 30.04 in - NE 3.5 mph - N/A   Clear
8:30 AM 68.0 °F - 53.6 °F 60% 30.04 in - NE 3.5 mph - N/A   Clear
9:00 AM 69.8 °F - 53.6 °F 56% 30.04 in - North 6.9 mph - N/A   Clear
9:30 AM 73.4 °F - 53.6 °F 50% 30.01 in - NNE 18.4 mph - N/A   Clear
10:00 AM 75.2 °F - 53.6 °F 47% 30.01 in - North 16.1 mph - N/A   Clear
10:30 AM 75.2 °F - 53.6 °F 47% 30.01 in - North 16.1 mph - N/A   Clear
11:00 AM 77.0 °F - 57.2 °F 50% 30.01 in 6.2 mi North 13.8 mph - N/A   Scattered Clouds
11:30 AM 77.0 °F - 57.2 °F 50% 30.01 in 6.2 mi North 13.8 mph - N/A   Scattered Clouds
12:00 PM 77.0 °F - 55.4 °F 47% 29.98 in 6.2 mi NNE 12.7 mph - N/A   Scattered Clouds
12:30 PM 77.0 °F - 53.6 °F 44% 29.95 in 6.2 mi North 15.0 mph - N/A   Scattered Clouds
1:00 PM 78.8 °F - 53.6 °F 42% 29.95 in 6.2 mi North 13.8 mph - N/A   Scattered Clouds
1:30 PM 78.8 °F - 53.6 °F 42% 29.95 in 6.2 mi North 15.0 mph - N/A   Scattered Clouds
2:00 PM 80 °F - 60 °F 40% 29.95 in 6 mi North 12.7 mph - -   Partly Cloudy
2:00 PM 80.6 °F 81.1 °F 59.0 °F 48% 29.95 in 6.2 mi North 12.7 mph - N/A   Scattered Clouds
2:30 PM 78.8 °F - 55.4 °F 44% 29.95 in 6.2 mi North 15.0 mph - N/A   Scattered Clouds
3:00 PM 78.8 °F - 53.6 °F 42% 29.95 in 6.2 mi North 15.0 mph - N/A   Scattered Clouds
3:30 PM 78.8 °F - 53.6 °F 42% 29.95 in 6.2 mi North 15.0 mph - N/A   Scattered Clouds
4:00 PM 78.8 °F - 55.4 °F 44% 29.95 in 6.2 mi North 15.0 mph - N/A   Scattered Clouds
4:30 PM 78.8 °F - 55.4 °F 44% 29.95 in 6.2 mi North 15.0 mph - N/A   Scattered Clouds
5:00 PM 77.0 °F - 57.2 °F 50% 29.95 in 6.2 mi North 16.1 mph - N/A   Scattered Clouds
5:30 PM 77.0 °F - 57.2 °F 50% 29.95 in 6.2 mi North 16.1 mph - N/A   Scattered Clouds
6:00 PM 75.2 °F - 57.2 °F 53% 29.98 in - North 17.3 mph - N/A   Clear
6:30 PM 73.4 °F - 57.2 °F 57% 29.98 in - North 17.3 mph - N/A   Clear
7:00 PM 73.4 °F - 57.2 °F 57% 29.98 in - North 17.3 mph - N/A   Clear
7:30 PM 71.6 °F - 57.2 °F 60% 29.98 in - North 13.8 mph - N/A   Clear
8:00 PM 72 °F - 58 °F 51% 30.00 in 6 mi North 20.7 mph - -   Partly Cloudy
8:00 PM 71.6 °F - 57.2 °F 60% 30.01 in - North 11.5 mph - N/A   Clear
8:30 PM 71.6 °F - 57.2 °F 60% 30.01 in - North 13.8 mph - N/A   Clear
9:00 PM 69.8 °F - 57.2 °F 64% 30.01 in - North 9.2 mph - N/A   Clear
9:30 PM 69.8 °F - 57.2 °F 64% 30.01 in - North 11.5 mph - N/A   Clear
10:00 PM 68.0 °F - 57.2 °F 68% 30.01 in - North 9.2 mph - N/A   Clear
10:30 PM 68.0 °F - 57.2 °F 68% 30.01 in - North 9.2 mph - N/A   Clear
11:00 PM 68.0 °F - 57.2 °F 68% 30.01 in - North 9.2 mph - N/A   Clear
11:30 PM 68.0 °F - 57.2 °F 68% 30.01 in - North 9.2 mph - N/A   Clear